TimeEDT,TemperatureF,Dew PointF,Humidity,Sea Level PressureIn,VisibilityMPH,Wind Direction,Wind SpeedMPH,Gust SpeedMPH,PrecipitationIn,Events,Conditions,WindDirDegrees,DateUTC
12:53 AM,78.1,73.9,87,30.06,10.0,Calm,Calm,-,N/A,,Clear,0,2013-08-04 04:53:00
1:53 AM,78.1,73.9,87,30.05,10.0,Calm,Calm,-,N/A,,Clear,0,2013-08-04 05:53:00
2:53 AM,78.1,73.9,87,30.04,10.0,Calm,Calm,-,N/A,,Clear,0,2013-08-04 06:53:00
3:26 AM,75.2,73.4,94,30.03,9.0,South,3.5,-,N/A,,Mostly Cloudy,170,2013-08-04 07:26:00
3:35 AM,77.0,73.4,89,30.03,9.0,Calm,Calm,-,N/A,,Scattered Clouds,0,2013-08-04 07:35:00
3:50 AM,77.0,73.4,89,30.03,10.0,Calm,Calm,-,N/A,,Mostly Cloudy,0,2013-08-04 07:50:00
3:53 AM,77.0,73.9,90,30.03,9.0,Calm,Calm,-,N/A,,Mostly Cloudy,0,2013-08-04 07:53:00
4:12 AM,77.0,73.4,89,30.03,9.0,Calm,Calm,-,N/A,,Scattered Clouds,0,2013-08-04 08:12:00
4:53 AM,75.9,73.0,91,30.02,8.0,Calm,Calm,-,N/A,,Clear,0,2013-08-04 08:53:00
5:53 AM,77.0,73.9,90,30.02,9.0,West,3.5,-,N/A,Fog,Patches of Fog,260,2013-08-04 09:53:00
6:53 AM,77.0,73.9,90,30.04,6.0,NW,3.5,-,N/A,,Clear,320,2013-08-04 10:53:00
7:10 AM,77.0,73.4,89,30.03,6.0,Calm,Calm,-,N/A,,Scattered Clouds,0,2013-08-04 11:10:00
7:19 AM,77.0,73.4,89,30.03,6.0,Calm,Calm,-,N/A,,Mostly Cloudy,0,2013-08-04 11:19:00
7:53 AM,78.1,75.0,90,30.04,6.0,Calm,Calm,-,N/A,,Mostly Cloudy,0,2013-08-04 11:53:00
8:26 AM,78.8,75.2,89,30.05,6.0,Calm,Calm,-,N/A,,Scattered Clouds,0,2013-08-04 12:26:00
8:53 AM,81.0,77.0,88,30.05,6.0,West,4.6,-,N/A,,Partly Cloudy,260,2013-08-04 12:53:00
9:53 AM,86.0,75.9,72,30.06,10.0,West,8.1,-,N/A,,Partly Cloudy,270,2013-08-04 13:53:00
10:53 AM,88.0,73.9,63,30.06,10.0,WNW,4.6,-,N/A,,Scattered Clouds,300,2013-08-04 14:53:00
11:53 AM,91.9,72.0,52,30.05,10.0,West,10.4,-,N/A,,Scattered Clouds,280,2013-08-04 15:53:00
12:12 PM,91.4,71.6,52,30.05,10.0,WNW,5.8,-,N/A,,Partly Cloudy,300,2013-08-04 16:12:00
12:53 PM,91.9,69.1,47,30.04,10.0,WNW,5.8,17.3,N/A,,Mostly Cloudy,290,2013-08-04 16:53:00
1:53 PM,93.0,69.1,45,30.02,10.0,NNW,8.1,-,N/A,,Mostly Cloudy,330,2013-08-04 17:53:00
2:53 PM,95.0,68.0,41,29.99,10.0,Variable,6.9,-,N/A,,Scattered Clouds,0,2013-08-04 18:53:00
3:53 PM,95.0,66.9,40,29.97,10.0,WNW,5.8,-,N/A,,Scattered Clouds,290,2013-08-04 19:53:00
4:53 PM,97.0,66.0,36,29.96,10.0,NW,8.1,-,N/A,,Partly Cloudy,310,2013-08-04 20:53:00
5:53 PM,95.0,66.9,40,29.95,10.0,NNW,6.9,-,N/A,,Partly Cloudy,340,2013-08-04 21:53:00
6:53 PM,91.9,70.0,48,29.96,10.0,NW,4.6,-,N/A,,Partly Cloudy,310,2013-08-04 22:53:00
7:53 PM,89.1,73.9,61,29.97,10.0,NNE,4.6,-,N/A,,Partly Cloudy,20,2013-08-04 23:53:00
8:53 PM,88.0,73.9,63,29.98,10.0,North,5.8,-,N/A,,Scattered Clouds,360,2013-08-05 00:53:00
9:53 PM,84.0,73.0,69,30.01,10.0,NW,5.8,-,N/A,,Scattered Clouds,310,2013-08-05 01:53:00
10:53 PM,82.0,73.0,74,30.02,10.0,NW,6.9,-,0.00,,Clear,310,2013-08-05 02:53:00
11:53 PM,81.0,71.1,72,30.01,10.0,North,3.5,-,N/A,,Clear,350,2013-08-05 03:53:00